This is the latest recevied weather packets stored in our database for station/object SR1WXZ. If no packets are shown the sender has not sent any weather packets the latest 1 day(s).
| Time | Temp. | Humidity | Pressure | Rain* | Wind** | Luminosity | Snow |
|---|---|---|---|---|---|---|---|
| 1778040945 | 10° C | 100% | 1007 hPa | - | 2.68 m/s, 30° | - | - |
| 1778040517 | 10° C | 100% | 1007 hPa | - | 2.68 m/s, 20° | - | - |
| 1778039320 | 10° C | 100% | 1007 hPa | - | 2.68 m/s, 20° | - | - |
| 1778039143 | 10° C | 100% | 1007 hPa | - | 2.68 m/s, 20° | - | - |
| 1778038118 | 10° C | 93% | 1007 hPa | - | 2.24 m/s, 10° | - | - |
| 1778036443 | 10° C | 93% | 1008 hPa | - | 2.68 m/s, 50° | - | - |
| 1778035721 | 10° C | 93% | 1008 hPa | - | 2.68 m/s, 50° | - | - |
| 1778035543 | 10° C | 93% | 1008 hPa | - | 2.68 m/s, 50° | - | - |
| 1778034519 | 10° C | 93% | 1008 hPa | - | 2.24 m/s, 30° | - | - |
| 1778033744 | 10° C | 93% | 1008 hPa | - | 2.24 m/s, 30° | - | - |
| 1778033318 | 10° C | 93% | 1008 hPa | - | 1.34 m/s, 20° | - | - |
| 1778032122 | 10° C | 93% | 1008 hPa | - | 1.34 m/s, 20° | - | - |
| 1778031943 | 10° C | 93% | 1008 hPa | - | 1.34 m/s, 20° | - | - |
| 1778030920 | 10° C | 93% | 1008 hPa | - | 3.13 m/s, 30° | - | - |
| 1778030144 | 10° C | 93% | 1008 hPa | - | 3.13 m/s, 30° | - | - |
| 1778029718 | 10° C | 100% | 1008 hPa | - | 3.13 m/s, 20° | - | - |
| 1778028521 | 10° C | 100% | 1008 hPa | - | 3.13 m/s, 20° | - | - |
| 1778028343 | 10° C | 100% | 1008 hPa | - | 3.13 m/s, 20° | - | - |
| 1778027441 | 10° C | 93% | 1008 hPa | - | 2.24 m/s, 10° | - | - |
| 1778027319 | 10° C | 93% | 1008 hPa | - | 2.24 m/s, 10° | - | - |
| 1778026545 | 10° C | 93% | 1008 hPa | - | 2.24 m/s, 10° | - | - |
| 1778024921 | 10° C | 100% | 1009 hPa | - | 1.34 m/s, 360° | - | - |
| 1778024743 | 10° C | 100% | 1009 hPa | - | 1.34 m/s, 360° | - | - |
| 1778023719 | 10° C | 100% | 1009 hPa | - | 2.24 m/s, 10° | - | - |
| 1778017727 | 10° C | 93% | 1009 hPa | - | 2.68 m/s, 360° | - | - |
* Rain since midnight (hover to see other rain measurements)
** Current wind speed in m/s (hover to see current wind gust speed)